Location: *
(44.3683°N, 6.6958°E)
Time: 17:17:05
(UTC+00:00)

STARLINK-33 - Pass Details

Date: 14 October 2019
Orbit: 548 x 551 km, 53.0° (Epoch: 17 November)

Event Time Altitude Azimuth Distance (km) Brightness Sun altitude
Rises 17:25:37 0° 232° (SW) 2,704 8.2 -6.9°
Reaches altitude 10° 17:27:51 10° 231° (SW) 1,814 7.2 -7.3°
Maximum altitude 17:31:58 81° 146° (SE) 559 3.6 -8.0°
Drops below altitude 10° 17:36:07 10° 58° (ENE) 1,824 5.7 -8.8°
Enters shadow 17:36:28 - 57° (ENE) 1,961 5.9 -8.8°
